Time,TemperatureF,DewpointF,PressureIn,WindDirection,WindDirectionDegrees,WindSpeedMPH,WindSpeedGustMPH,Humidity,HourlyPrecipIn,Conditions,Clouds,dailyrainin,SoftwareType,DateUTC
2013-02-18 00:00:00,77.0,71.0,30.11,NNE,30,32.0,-999.0,82,-99.99,,,-99.99,,2013-02-18 05:00:00,
2013-02-18 00:21:00,77.0,71.0,30.11,NNE,30,32.0,-999.0,82,-99.99,,,-99.99,,2013-02-18 05:21:00,
2013-02-18 00:31:00,77.0,71.0,30.11,NNE,30,32.0,-999.0,82,-99.99,,,-99.99,,2013-02-18 05:31:00,
2013-02-18 00:41:00,77.0,71.0,30.11,NNE,30,32.0,-999.0,82,-99.99,,,-99.99,,2013-02-18 05:41:00,
2013-02-18 00:51:00,77.0,71.0,30.11,NNE,30,32.0,-999.0,82,-99.99,,,-99.99,,2013-02-18 05:51:00,
2013-02-18 01:00:00,77.0,72.0,30.07,NNE,30,29.0,-999.0,84,-99.99,,,-99.99,,2013-02-18 06:00:00,
2013-02-18 01:21:00,77.0,72.0,30.07,NNE,30,29.0,-999.0,84,-99.99,,,-99.99,,2013-02-18 06:21:00,
2013-02-18 01:31:00,77.0,72.0,30.07,NNE,30,29.0,-999.0,84,-99.99,,,-99.99,,2013-02-18 06:31:00,
2013-02-18 01:41:00,77.0,72.0,30.07,NNE,30,29.0,-999.0,84,-99.99,,,-99.99,,2013-02-18 06:41:00,
2013-02-18 01:51:00,77.0,72.0,30.07,NNE,30,29.0,-999.0,84,-99.99,,,-99.99,,2013-02-18 06:51:00,
2013-02-18 02:00:00,76.0,71.0,30.05,NNE,30,31.0,-999.0,83,-99.99,,,-99.99,,2013-02-18 07:00:00,
2013-02-18 02:21:00,76.0,71.0,30.05,NNE,30,31.0,-999.0,83,-99.99,,,-99.99,,2013-02-18 07:21:00,
2013-02-18 02:31:00,76.0,71.0,30.05,NNE,30,31.0,-999.0,83,-99.99,,,-99.99,,2013-02-18 07:31:00,
2013-02-18 02:42:00,76.0,71.0,30.05,NNE,30,31.0,-999.0,83,-99.99,,,-99.99,,2013-02-18 07:42:00,
2013-02-18 02:51:00,76.0,71.0,30.05,NNE,30,31.0,-999.0,83,-99.99,,,-99.99,,2013-02-18 07:51:00,
2013-02-18 03:00:00,75.0,73.0,30.09,NE,40,20.0,-999.0,94,-99.99,,,-99.99,,2013-02-18 08:00:00,
2013-02-18 03:21:00,75.0,73.0,30.09,NE,40,20.0,-999.0,94,-99.99,,,-99.99,,2013-02-18 08:21:00,
2013-02-18 03:32:00,75.0,73.0,30.09,NE,40,20.0,-999.0,94,-99.99,,,-99.99,,2013-02-18 08:32:00,
2013-02-18 03:41:00,75.0,73.0,30.09,NE,40,20.0,-999.0,94,-99.99,,,-99.99,,2013-02-18 08:41:00,
2013-02-18 03:52:00,75.0,73.0,30.09,NE,40,20.0,-999.0,94,-99.99,,,-99.99,,2013-02-18 08:52:00,
2013-02-18 04:00:00,76.0,71.0,30.09,NNE,30,29.0,-999.0,84,-99.99,,,-99.99,,2013-02-18 09:00:00,
2013-02-18 04:22:00,76.0,71.0,30.09,NNE,30,29.0,-999.0,84,-99.99,,,-99.99,,2013-02-18 09:22:00,
2013-02-18 04:31:00,76.0,71.0,30.09,NNE,30,29.0,-999.0,84,-99.99,,,-99.99,,2013-02-18 09:31:00,
2013-02-18 04:41:00,76.0,71.0,30.09,NNE,30,29.0,-999.0,84,-99.99,,,-99.99,,2013-02-18 09:41:00,
2013-02-18 04:51:00,76.0,71.0,30.09,NNE,30,29.0,-999.0,84,-99.99,,,-99.99,,2013-02-18 09:51:00,
2013-02-18 05:00:00,78.0,69.0,30.09,SW,230,37.0,-999.0,74,-99.99,,,-99.99,,2013-02-18 10:00:00,
2013-02-18 05:21:00,78.0,69.0,30.09,SW,230,37.0,-999.0,74,-99.99,,,-99.99,,2013-02-18 10:21:00,
2013-02-18 05:31:00,78.0,69.0,30.09,SW,230,37.0,-999.0,74,-99.99,,,-99.99,,2013-02-18 10:31:00,
2013-02-18 05:41:00,78.0,69.0,30.09,SW,230,37.0,-999.0,74,-99.99,,,-99.99,,2013-02-18 10:41:00,
2013-02-18 05:51:00,78.0,69.0,30.09,SW,230,37.0,-999.0,74,-99.99,,,-99.99,,2013-02-18 10:51:00,
2013-02-18 06:00:00,79.0,71.0,30.13,East,90,16.0,-999.0,76,-99.99,,,-99.99,,2013-02-18 11:00:00,
2013-02-18 06:21:00,79.0,71.0,30.13,East,90,16.0,-999.0,76,-99.99,,,-99.99,,2013-02-18 11:21:00,
2013-02-18 06:31:00,79.0,71.0,30.13,East,90,16.0,-999.0,76,-99.99,,,-99.99,,2013-02-18 11:31:00,
2013-02-18 06:41:00,79.0,71.0,30.13,East,90,16.0,-999.0,76,-99.99,,,-99.99,,2013-02-18 11:41:00,
2013-02-18 06:52:00,79.0,71.0,30.13,East,90,16.0,-999.0,76,-99.99,,,-99.99,,2013-02-18 11:52:00,
2013-02-18 07:00:00,79.0,70.0,30.16,ESE,110,15.0,-999.0,73,-99.99,,,-99.99,,2013-02-18 12:00:00,
2013-02-18 07:21:00,79.0,70.0,30.16,ESE,110,15.0,-999.0,73,-99.99,,,-99.99,,2013-02-18 12:21:00,
2013-02-18 07:31:00,79.0,70.0,30.16,ESE,110,15.0,-999.0,73,-99.99,,,-99.99,,2013-02-18 12:31:00,
2013-02-18 07:41:00,79.0,70.0,30.16,ESE,110,15.0,-999.0,73,-99.99,,,-99.99,,2013-02-18 12:41:00,
2013-02-18 07:52:00,79.0,70.0,30.16,ESE,110,15.0,-999.0,73,-99.99,,,-99.99,,2013-02-18 12:52:00,
2013-02-18 08:00:00,78.0,69.0,30.17,East,90,14.0,-999.0,71,-99.99,,,-99.99,,2013-02-18 13:00:00,
2013-02-18 08:21:00,78.0,69.0,30.17,East,90,14.0,-999.0,71,-99.99,,,-99.99,,2013-02-18 13:21:00,
2013-02-18 08:31:00,78.0,69.0,30.17,East,90,14.0,-999.0,71,-99.99,,,-99.99,,2013-02-18 13:31:00,
2013-02-18 08:41:00,78.0,69.0,30.17,East,90,14.0,-999.0,71,-99.99,,,-99.99,,2013-02-18 13:41:00,
2013-02-18 08:52:00,78.0,69.0,30.17,East,90,14.0,-999.0,71,-99.99,,,-99.99,,2013-02-18 13:52:00,
2013-02-18 09:00:00,79.0,71.0,30.20,East,90,13.0,-999.0,76,-99.99,,,-99.99,,2013-02-18 14:00:00,
2013-02-18 09:21:00,79.0,71.0,30.20,East,90,13.0,-999.0,76,-99.99,,,-99.99,,2013-02-18 14:21:00,
2013-02-18 09:31:00,79.0,71.0,30.20,East,90,13.0,-999.0,76,-99.99,,,-99.99,,2013-02-18 14:31:00,
2013-02-18 09:41:00,79.0,71.0,30.20,East,90,13.0,-999.0,76,-99.99,,,-99.99,,2013-02-18 14:41:00,
2013-02-18 09:52:00,79.0,71.0,30.20,East,90,13.0,-999.0,76,-99.99,,,-99.99,,2013-02-18 14:52:00,
2013-02-18 10:00:00,79.0,71.0,30.21,East,90,16.0,-999.0,76,-99.99,,,-99.99,,2013-02-18 15:00:00,
2013-02-18 10:21:00,79.0,71.0,30.21,East,90,16.0,-999.0,76,-99.99,,,-99.99,,2013-02-18 15:21:00,
2013-02-18 10:31:00,79.0,71.0,30.21,East,90,16.0,-999.0,76,-99.99,,,-99.99,,2013-02-18 15:31:00,
2013-02-18 10:41:00,79.0,71.0,30.21,East,90,16.0,-999.0,76,-99.99,,,-99.99,,2013-02-18 15:41:00,
2013-02-18 10:51:00,79.0,71.0,30.21,East,90,16.0,-999.0,76,-99.99,,,-99.99,,2013-02-18 15:51:00,
2013-02-18 11:00:00,79.0,68.0,30.19,East,100,14.0,-999.0,69,-99.99,,,-99.99,,2013-02-18 16:00:00,
2013-02-18 11:21:00,79.0,68.0,30.19,East,100,14.0,-999.0,69,-99.99,,,-99.99,,2013-02-18 16:21:00,
2013-02-18 11:31:00,79.0,68.0,30.19,East,100,14.0,-999.0,69,-99.99,,,-99.99,,2013-02-18 16:31:00,
2013-02-18 11:41:00,79.0,68.0,30.19,East,100,14.0,-999.0,69,-99.99,,,-99.99,,2013-02-18 16:41:00,
2013-02-18 11:51:00,79.0,68.0,30.19,East,100,14.0,-999.0,69,-99.99,,,-99.99,,2013-02-18 16:51:00,
2013-02-18 12:00:00,79.0,67.0,30.17,East,90,10.0,-999.0,67,-99.99,,,-99.99,,2013-02-18 17:00:00,
2013-02-18 12:21:00,79.0,67.0,30.17,East,90,10.0,-999.0,67,-99.99,,,-99.99,,2013-02-18 17:21:00,
2013-02-18 12:31:00,79.0,67.0,30.17,East,90,10.0,-999.0,67,-99.99,,,-99.99,,2013-02-18 17:31:00,
2013-02-18 12:41:00,79.0,67.0,30.17,East,90,10.0,-999.0,67,-99.99,,,-99.99,,2013-02-18 17:41:00,
2013-02-18 12:52:00,79.0,67.0,30.17,East,90,10.0,-999.0,67,-99.99,,,-99.99,,2013-02-18 17:52:00,
2013-02-18 13:00:00,78.0,70.0,30.15,ENE,70,18.0,-999.0,76,-99.99,,,-99.99,,2013-02-18 18:00:00,
2013-02-18 13:21:00,78.0,70.0,30.15,ENE,70,18.0,-999.0,76,-99.99,,,-99.99,,2013-02-18 18:21:00,
2013-02-18 13:31:00,78.0,70.0,30.15,ENE,70,18.0,-999.0,76,-99.99,,,-99.99,,2013-02-18 18:31:00,
2013-02-18 13:41:00,78.0,70.0,30.15,ENE,70,18.0,-999.0,76,-99.99,,,-99.99,,2013-02-18 18:41:00,
2013-02-18 13:51:00,78.0,70.0,30.15,ENE,70,18.0,-999.0,76,-99.99,,,-99.99,,2013-02-18 18:51:00,
2013-02-18 14:00:00,78.0,71.0,30.12,East,80,15.0,-999.0,79,-99.99,,,-99.99,,2013-02-18 19:00:00,
2013-02-18 14:21:00,78.0,71.0,30.12,East,80,15.0,-999.0,79,-99.99,,,-99.99,,2013-02-18 19:21:00,
2013-02-18 14:32:00,78.0,71.0,30.12,East,80,15.0,-999.0,79,-99.99,,,-99.99,,2013-02-18 19:32:00,
2013-02-18 14:41:00,78.0,71.0,30.12,East,80,15.0,-999.0,79,-99.99,,,-99.99,,2013-02-18 19:41:00,
2013-02-18 14:51:00,78.0,71.0,30.12,East,80,15.0,-999.0,79,-99.99,,,-99.99,,2013-02-18 19:51:00,